EZY3209 EDDS-EGKK

Flight info

Callsign EZY3209
Flight time 1h 23m
Altitude 34000
Route VESID4B VESID Y127 BANIM L608 LIRSU DCT SPI DCT DENUT L610 TEBRA
Aircraft A320/M-SDE3FGHIRWY/LB1

Departure

Time 2026-05-05 15:17
Airport Stuttgart Airport (EDDS)

Arrival

Time 2026-05-05 16:40
Airport London Gatwick Airport (EGKK)
Time Latitude Longitude Altitude Speed Heading
2026-05-05 14:55 48.68930 9.19652 1285 ft 0 kts 343°
2026-05-05 15:07 48.68923 9.19656 1285 ft 3 kts 344°
2026-05-05 15:07 48.68903 9.19663 1283 ft 3 kts 353°
2026-05-05 15:07 48.68883 9.19664 1289 ft 3 kts
2026-05-05 15:07 48.68865 9.19657 1287 ft 3 kts 35°
2026-05-05 15:08 48.68854 9.19641 1291 ft 1 kts 73°
2026-05-05 15:08 48.68853 9.19633 1291 ft 0 kts 73°
2026-05-05 15:10 48.68858 9.19660 1289 ft 7 kts 73°
2026-05-05 15:10 48.68879 9.19767 1289 ft 13 kts 73°
2026-05-05 15:10 48.68844 9.19895 1287 ft 17 kts 160°
2026-05-05 15:11 48.68830 9.20013 1285 ft 14 kts 68°
2026-05-05 15:11 48.68864 9.20168 1288 ft 17 kts 73°
2026-05-05 15:11 48.68900 9.20350 1286 ft 19 kts 74°
2026-05-05 15:11 48.68935 9.20555 1287 ft 21 kts 76°
2026-05-05 15:12 48.68973 9.20782 1285 ft 23 kts 75°
2026-05-05 15:12 48.69025 9.21023 1288 ft 25 kts 75°
2026-05-05 15:12 48.69073 9.21285 1286 ft 27 kts 74°
2026-05-05 15:12 48.69128 9.21561 1289 ft 28 kts 73°
2026-05-05 15:13 48.69183 9.21851 1287 ft 29 kts 75°
2026-05-05 15:13 48.69237 9.22143 1289 ft 29 kts 74°
2026-05-05 15:13 48.69294 9.22443 1287 ft 27 kts 74°
2026-05-05 15:13 48.69344 9.22712 1285 ft 27 kts 73°
2026-05-05 15:14 48.69401 9.22995 1287 ft 29 kts 73°
2026-05-05 15:14 48.69456 9.23290 1288 ft 30 kts 74°
2026-05-05 15:14 48.69506 9.23563 1285 ft 26 kts 74°
2026-05-05 15:14 48.69557 9.23830 1287 ft 24 kts 73°
2026-05-05 15:15 48.69597 9.24035 1289 ft 17 kts 73°
2026-05-05 15:15 48.69599 9.24194 1287 ft 10 kts 119°
2026-05-05 15:15 48.69568 9.24275 1287 ft 9 kts 122°
2026-05-05 15:15 48.69514 9.24313 1285 ft 9 kts 167°
2026-05-05 15:16 48.69456 9.24333 1285 ft 8 kts 168°
2026-05-05 15:16 48.69405 9.24341 1285 ft 6 kts 195°
2026-05-05 15:16 48.69385 9.24296 1285 ft 5 kts 256°
2026-05-05 15:16 48.69340 9.24047 1288 ft 63 kts 254°
2026-05-05 15:17 48.69138 9.22997 1288 ft 142 kts 253°
2026-05-05 15:17 48.68817 9.21335 1716 ft 170 kts 254°
2026-05-05 15:17 48.68484 9.19567 2521 ft 183 kts 254°
2026-05-05 15:17 48.68114 9.17647 2941 ft 198 kts 254°
2026-05-05 15:18 48.67708 9.15580 3342 ft 213 kts 253°
2026-05-05 15:18 48.67263 9.13337 3707 ft 234 kts 253°
2026-05-05 15:18 48.66929 9.10865 4413 ft 244 kts 271°
2026-05-05 15:18 48.67398 9.08404 5219 ft 249 kts 301°
2026-05-05 15:19 48.68577 9.06475 6054 ft 253 kts 327°
2026-05-05 15:19 48.70272 9.05578 6580 ft 271 kts 352°
2026-05-05 15:19 48.72167 9.05196 7273 ft 279 kts 352°
2026-05-05 15:19 48.74090 9.04595 8004 ft 285 kts 342°
2026-05-05 15:20 48.75980 9.03609 8796 ft 290 kts 338°
2026-05-05 15:20 48.77876 9.02495 9565 ft 295 kts 336°
2026-05-05 15:20 48.79794 9.01365 10201 ft 306 kts 336°
2026-05-05 15:20 48.81870 9.00088 10442 ft 330 kts 335°
2026-05-05 15:21 48.84011 8.98760 10916 ft 342 kts 336°
2026-05-05 15:21 48.86239 8.97390 11626 ft 347 kts 336°
2026-05-05 15:21 48.88496 8.96025 12351 ft 351 kts 336°
2026-05-05 15:21 48.90784 8.94663 13059 ft 355 kts 336°
2026-05-05 15:22 48.93101 8.93294 13758 ft 359 kts 336°
2026-05-05 15:22 48.95449 8.91913 14365 ft 363 kts 336°
2026-05-05 15:22 48.97822 8.90516 14976 ft 368 kts 337°
2026-05-05 15:22 49.00218 8.89098 15594 ft 372 kts 336°
2026-05-05 15:23 49.02638 8.87656 16197 ft 375 kts 337°
2026-05-05 15:23 49.05081 8.86195 16804 ft 379 kts 337°
2026-05-05 15:23 49.07555 8.84707 17392 ft 384 kts 337°
2026-05-05 15:23 49.10055 8.83208 17996 ft 388 kts 337°
2026-05-05 15:24 49.12575 8.81695 18538 ft 391 kts 337°
2026-05-05 15:24 49.15159 8.80352 19063 ft 395 kts 345°
2026-05-05 15:24 49.17882 8.79695 19597 ft 398 kts 356°
2026-05-05 15:24 49.20661 8.79790 20124 ft 402 kts
2026-05-05 15:25 49.23454 8.80188 20651 ft 404 kts
2026-05-05 15:25 49.26264 8.80588 21164 ft 407 kts
2026-05-05 15:25 49.29110 8.80989 21672 ft 409 kts
2026-05-05 15:25 49.31952 8.81378 22171 ft 412 kts
2026-05-05 15:26 49.34782 8.81761 22657 ft 415 kts
2026-05-05 15:26 49.37698 8.82158 23152 ft 417 kts
2026-05-05 15:26 49.40599 8.82549 23598 ft 420 kts
2026-05-05 15:26 49.43489 8.82938 23956 ft 423 kts
2026-05-05 15:27 49.46431 8.83338 24322 ft 426 kts
2026-05-05 15:27 49.49399 8.83747 24691 ft 429 kts
2026-05-05 15:27 49.52383 8.84005 25055 ft 431 kts 356°
2026-05-05 15:27 49.55394 8.83449 25409 ft 430 kts 345°
2026-05-05 15:28 49.58191 8.82062 25752 ft 429 kts 333°
2026-05-05 15:28 49.60803 8.79865 26106 ft 427 kts 322°
2026-05-05 15:28 49.63074 8.76975 26453 ft 424 kts 311°
2026-05-05 15:28 49.65010 8.73552 26802 ft 424 kts 306°
2026-05-05 15:29 49.66904 8.70030 27178 ft 425 kts 306°
2026-05-05 15:29 49.68619 8.66327 27532 ft 422 kts 296°
2026-05-05 15:29 49.70091 8.62397 27885 ft 424 kts 296°
2026-05-05 15:29 49.71571 8.58431 28235 ft 427 kts 295°
2026-05-05 15:30 49.73055 8.54444 28575 ft 429 kts 295°
2026-05-05 15:30 49.74540 8.50441 28921 ft 431 kts 295°
2026-05-05 15:30 49.76027 8.46419 29248 ft 433 kts 295°
2026-05-05 15:30 49.77526 8.42353 29571 ft 435 kts 295°
2026-05-05 15:31 49.79028 8.38275 29875 ft 437 kts 295°
2026-05-05 15:31 49.80535 8.34180 30143 ft 439 kts 295°
2026-05-05 15:31 49.82046 8.30070 30418 ft 440 kts 295°
2026-05-05 15:31 49.83563 8.25943 30716 ft 441 kts 295°
2026-05-05 15:32 49.85081 8.21807 30987 ft 442 kts 295°
2026-05-05 15:32 49.86605 8.17653 31306 ft 442 kts 295°
2026-05-05 15:32 49.88118 8.13517 31717 ft 440 kts 294°
2026-05-05 15:32 49.89616 8.09405 32119 ft 437 kts 294°
2026-05-05 15:33 49.91107 8.05309 32502 ft 436 kts 294°
2026-05-05 15:33 49.92593 8.01223 32928 ft 433 kts 293°
2026-05-05 15:33 49.93870 7.97046 33328 ft 425 kts 285°
2026-05-05 15:33 49.94711 7.92700 33717 ft 417 kts 277°
2026-05-05 15:34 49.95146 7.88280 34042 ft 412 kts 272°
2026-05-05 15:34 49.95489 7.83857 34318 ft 412 kts 272°
2026-05-05 15:34 49.95836 7.79438 34567 ft 413 kts 272°
2026-05-05 15:34 49.96186 7.75011 34827 ft 413 kts 272°
2026-05-05 15:35 49.96541 7.70582 35084 ft 413 kts 272°
2026-05-05 15:35 49.96896 7.66160 35318 ft 413 kts 272°
2026-05-05 15:35 49.97250 7.61727 35535 ft 414 kts 272°
2026-05-05 15:35 49.97598 7.57284 35729 ft 414 kts 272°
2026-05-05 15:36 49.97944 7.52821 35854 ft 415 kts 272°
2026-05-05 15:36 49.98621 7.43962 35916 ft 411 kts 271°
2026-05-05 15:37 49.99291 7.35143 35916 ft 411 kts 271°
2026-05-05 15:37 49.99958 7.26324 35922 ft 411 kts 272°
2026-05-05 15:38 50.00615 7.17513 35916 ft 411 kts 271°
2026-05-05 15:38 50.01267 7.08687 35914 ft 411 kts 271°
2026-05-05 15:39 50.01912 6.99869 35896 ft 411 kts 271°
2026-05-05 15:39 50.02859 6.91089 35893 ft 417 kts 282°
2026-05-05 15:40 50.05394 6.82860 35913 ft 425 kts 294°
2026-05-05 15:40 50.08269 6.74825 35914 ft 425 kts 293°
2026-05-05 15:41 50.11127 6.66769 35904 ft 424 kts 293°
2026-05-05 15:41 50.13972 6.58709 35896 ft 424 kts 293°
2026-05-05 15:42 50.16809 6.50644 35872 ft 424 kts 293°
2026-05-05 15:42 50.19672 6.42593 35892 ft 425 kts 295°
2026-05-05 15:43 50.22795 6.34708 35869 ft 428 kts 297°
2026-05-05 15:43 50.26033 6.26875 35871 ft 429 kts 297°
2026-05-05 15:44 50.29226 6.19006 35884 ft 428 kts 296°
2026-05-05 15:44 50.32341 6.11135 35880 ft 428 kts 296°
2026-05-05 15:45 50.35463 6.03208 35888 ft 428 kts 296°
2026-05-05 15:45 50.38595 5.95273 35889 ft 429 kts 296°
2026-05-05 15:46 50.41739 5.87293 35886 ft 430 kts 296°
2026-05-05 15:46 50.44871 5.79305 35879 ft 431 kts 296°
2026-05-05 15:47 50.48005 5.71289 35888 ft 431 kts 296°
2026-05-05 15:47 50.51137 5.63250 35887 ft 431 kts 296°
2026-05-05 15:48 50.54222 5.55228 35912 ft 430 kts 295°
2026-05-05 15:48 50.57274 5.47147 35916 ft 430 kts 295°
2026-05-05 15:49 50.60325 5.39047 35916 ft 430 kts 295°
2026-05-05 15:49 50.63382 5.30952 35924 ft 430 kts 295°
2026-05-05 15:50 50.66430 5.22857 35920 ft 430 kts 295°
2026-05-05 15:50 50.69469 5.14734 35923 ft 430 kts 295°
2026-05-05 15:51 50.72501 5.06612 35907 ft 430 kts 295°
2026-05-05 15:51 50.75030 4.99842 35907 ft 431 kts 295°
2026-05-05 15:52 50.78064 4.91676 35914 ft 431 kts 295°
2026-05-05 15:52 50.81088 4.83494 35922 ft 430 kts 295°
2026-05-05 15:53 50.84083 4.75378 35926 ft 429 kts 295°
2026-05-05 15:53 50.87090 4.67220 35940 ft 429 kts 295°
2026-05-05 15:54 50.90083 4.59064 35929 ft 429 kts 295°
2026-05-05 15:54 50.93078 4.50865 35924 ft 430 kts 295°
2026-05-05 15:55 50.96078 4.42650 35919 ft 430 kts 295°
2026-05-05 15:55 50.99062 4.34419 35919 ft 430 kts 295°
2026-05-05 15:56 51.02016 4.26241 35926 ft 430 kts 295°
2026-05-05 15:56 51.04991 4.18006 35941 ft 430 kts 295°
2026-05-05 15:57 51.07961 4.09750 35941 ft 430 kts 295°
2026-05-05 15:57 51.10925 4.01489 35941 ft 430 kts 295°
2026-05-05 15:58 51.13885 3.93212 35940 ft 430 kts 295°
2026-05-05 15:58 51.16832 3.84937 35940 ft 430 kts 295°
2026-05-05 15:59 51.19777 3.76631 35948 ft 430 kts 295°
2026-05-05 15:59 51.22681 3.68309 35943 ft 428 kts 291°
2026-05-05 16:00 51.24462 3.59395 35944 ft 420 kts 277°
2026-05-05 16:00 51.25667 3.50269 35942 ft 420 kts 278°
2026-05-05 16:01 51.26877 3.41131 35801 ft 421 kts 277°
2026-05-05 16:01 51.27476 3.36559 35541 ft 420 kts 277°
2026-05-05 16:01 51.28067 3.31993 35310 ft 419 kts 278°
2026-05-05 16:01 51.28652 3.27449 34886 ft 415 kts 277°
2026-05-05 16:02 51.29231 3.22950 34380 ft 412 kts 278°
2026-05-05 16:02 51.29807 3.18483 33863 ft 409 kts 278°
2026-05-05 16:02 51.30375 3.14046 33334 ft 405 kts 278°
2026-05-05 16:02 51.30931 3.09666 32847 ft 400 kts 277°
2026-05-05 16:03 51.31479 3.05320 32371 ft 396 kts 277°
2026-05-05 16:03 51.32016 3.01032 31900 ft 392 kts 277°
2026-05-05 16:03 51.32527 2.96925 31454 ft 388 kts 277°
2026-05-05 16:03 51.33053 2.92710 30999 ft 384 kts 277°
2026-05-05 16:04 51.33568 2.88599 30558 ft 380 kts 277°
2026-05-05 16:04 51.34092 2.84420 30118 ft 377 kts 278°
2026-05-05 16:04 51.34601 2.80325 29635 ft 373 kts 277°
2026-05-05 16:04 51.35099 2.76277 29225 ft 368 kts 277°
2026-05-05 16:05 51.35591 2.72282 28798 ft 363 kts 278°
2026-05-05 16:05 51.36071 2.68396 28408 ft 358 kts 278°
2026-05-05 16:05 51.36554 2.64509 28018 ft 354 kts 278°
2026-05-05 16:05 51.37030 2.60672 27634 ft 349 kts 278°
2026-05-05 16:06 51.37496 2.56877 27247 ft 345 kts 278°
2026-05-05 16:06 51.37953 2.53122 26878 ft 343 kts 278°
2026-05-05 16:06 51.38407 2.49370 26498 ft 341 kts 278°
2026-05-05 16:06 51.38859 2.45655 26129 ft 340 kts 278°
2026-05-05 16:07 51.39308 2.41953 25753 ft 338 kts 278°
2026-05-05 16:07 51.39755 2.38262 25369 ft 337 kts 278°
2026-05-05 16:07 51.40199 2.34571 24966 ft 337 kts 278°
2026-05-05 16:07 51.40640 2.30893 24566 ft 336 kts 278°
2026-05-05 16:08 51.41081 2.27225 24158 ft 335 kts 278°
2026-05-05 16:08 51.41521 2.23567 23756 ft 334 kts 277°
2026-05-05 16:08 51.41966 2.19918 23292 ft 334 kts 279°
2026-05-05 16:08 51.42412 2.16274 22874 ft 332 kts 278°
2026-05-05 16:09 51.42855 2.12661 22464 ft 330 kts 278°
2026-05-05 16:09 51.43294 2.09054 22056 ft 329 kts 278°
2026-05-05 16:09 51.43733 2.05453 21652 ft 328 kts 278°
2026-05-05 16:09 51.44165 2.01885 21253 ft 326 kts 278°
2026-05-05 16:10 51.44594 1.98312 20849 ft 325 kts 279°
2026-05-05 16:10 51.45012 1.94757 20452 ft 324 kts 279°
2026-05-05 16:10 51.45428 1.91204 20066 ft 324 kts 279°
2026-05-05 16:10 51.45846 1.87639 19657 ft 324 kts 278°
2026-05-05 16:11 51.46259 1.84089 19265 ft 324 kts 279°
2026-05-05 16:11 51.47498 1.73408 18043 ft 326 kts 279°
2026-05-05 16:12 51.47908 1.69845 17632 ft 325 kts 279°
2026-05-05 16:12 51.48563 1.62714 16842 ft 322 kts 269°
2026-05-05 16:13 51.46883 1.52445 15695 ft 318 kts 249°
2026-05-05 16:13 51.46121 1.49154 15319 ft 318 kts 249°
2026-05-05 16:13 51.45352 1.45828 14938 ft 318 kts 249°
2026-05-05 16:14 51.43676 1.39226 14169 ft 318 kts 239°
2026-05-05 16:14 51.40681 1.34209 13653 ft 315 kts 216°
2026-05-05 16:15 51.37146 1.30041 13229 ft 313 kts 216°
2026-05-05 16:15 51.33687 1.25935 12812 ft 311 kts 217°
2026-05-05 16:16 51.30221 1.21826 12401 ft 309 kts 216°
2026-05-05 16:16 51.26772 1.17762 11991 ft 307 kts 217°
2026-05-05 16:17 51.23340 1.13735 11582 ft 305 kts 216°
2026-05-05 16:17 51.21630 1.11733 11376 ft 304 kts 216°
2026-05-05 16:18 51.18239 1.07756 10724 ft 302 kts 217°
2026-05-05 16:18 51.16549 1.05776 10414 ft 300 kts 217°
2026-05-05 16:18 51.13196 1.01853 9929 ft 297 kts 217°
2026-05-05 16:19 51.11567 0.99953 9673 ft 292 kts 217°
2026-05-05 16:19 51.09943 0.98057 9409 ft 291 kts 217°
2026-05-05 16:19 51.06727 0.94220 8973 ft 288 kts 223°
2026-05-05 16:20 51.04506 0.89034 8997 ft 286 kts 245°
2026-05-05 16:20 51.02812 0.83324 9004 ft 286 kts 245°
2026-05-05 16:21 51.01096 0.77623 9018 ft 286 kts 245°
2026-05-05 16:22 50.98523 0.69064 9028 ft 286 kts 245°
2026-05-05 16:22 50.96811 0.63353 9032 ft 286 kts 245°
2026-05-05 16:23 50.95091 0.57650 9032 ft 286 kts 245°
2026-05-05 16:23 50.94230 0.54801 9032 ft 287 kts 245°
2026-05-05 16:23 50.92507 0.49112 9026 ft 286 kts 245°
2026-05-05 16:24 50.91795 0.46178 9026 ft 285 kts 258°
2026-05-05 16:24 50.91625 0.43068 9027 ft 284 kts 274°
2026-05-05 16:24 50.93278 0.37623 9034 ft 281 kts 309°
2026-05-05 16:25 50.94519 0.35247 9037 ft 282 kts 310°
2026-05-05 16:25 50.97040 0.30476 9049 ft 281 kts 310°
2026-05-05 16:25 50.98287 0.28124 9051 ft 282 kts 310°
2026-05-05 16:26 51.00802 0.23389 8660 ft 276 kts 310°
2026-05-05 16:26 51.02947 0.18405 8150 ft 277 kts 284°
2026-05-05 16:27 51.02988 0.15366 8028 ft 278 kts 257°
2026-05-05 16:27 51.02421 0.12503 8010 ft 265 kts 251°
2026-05-05 16:27 51.01793 0.09814 7869 ft 254 kts 250°
2026-05-05 16:27 51.01178 0.07229 7641 ft 248 kts 251°
2026-05-05 16:28 51.00560 0.04685 7309 ft 246 kts 250°
2026-05-05 16:28 50.99943 0.02156 6986 ft 245 kts 251°
2026-05-05 16:28 50.99328 -0.00361 6650 ft 244 kts 250°
2026-05-05 16:28 50.98719 -0.02864 6407 ft 243 kts 250°
2026-05-05 16:29 50.98113 -0.05356 6103 ft 241 kts 250°
2026-05-05 16:29 50.97493 -0.07828 5752 ft 241 kts 250°
2026-05-05 16:29 50.96871 -0.10298 5388 ft 242 kts 250°
2026-05-05 16:29 50.96233 -0.12764 5021 ft 242 kts 250°
2026-05-05 16:30 50.95603 -0.15235 4780 ft 241 kts 252°
2026-05-05 16:30 50.95376 -0.17806 4519 ft 236 kts 276°
2026-05-05 16:30 50.95549 -0.20393 4258 ft 234 kts 281°
2026-05-05 16:30 50.95772 -0.22942 4078 ft 233 kts 281°
2026-05-05 16:31 50.96002 -0.25492 4034 ft 233 kts 281°
2026-05-05 16:31 50.96231 -0.28040 4042 ft 234 kts 281°
2026-05-05 16:31 50.96464 -0.30585 4032 ft 232 kts 281°
2026-05-05 16:31 50.96694 -0.33127 4043 ft 234 kts 281°
2026-05-05 16:32 50.96916 -0.35684 4042 ft 234 kts 281°
2026-05-05 16:32 50.97142 -0.38252 4042 ft 234 kts 281°
2026-05-05 16:32 50.97376 -0.40818 4044 ft 234 kts 281°
2026-05-05 16:32 50.97673 -0.43348 4036 ft 232 kts 294°
2026-05-05 16:33 50.98570 -0.45351 3832 ft 221 kts 326°
2026-05-05 16:33 50.99921 -0.46483 3582 ft 219 kts 339°
2026-05-05 16:33 51.01326 -0.47386 3334 ft 218 kts 341°
2026-05-05 16:33 51.02256 -0.47971 3164 ft 216 kts 341°
2026-05-05 16:34 51.03649 -0.48852 3050 ft 215 kts 341°
2026-05-05 16:34 51.05004 -0.49716 3043 ft 204 kts 341°
2026-05-05 16:34 51.06279 -0.50509 3042 ft 189 kts 348°
2026-05-05 16:34 51.07524 -0.50605 3074 ft 174 kts 13°
2026-05-05 16:35 51.08594 -0.49788 3052 ft 172 kts 39°
2026-05-05 16:35 51.09420 -0.48410 3060 ft 172 kts 45°
2026-05-05 16:35 51.10232 -0.47015 3056 ft 171 kts 45°
2026-05-05 16:35 51.10966 -0.45524 3052 ft 173 kts 60°
2026-05-05 16:36 51.11335 -0.43701 3050 ft 177 kts 71°
2026-05-05 16:36 51.11628 -0.41811 2896 ft 173 kts 72°
2026-05-05 16:36 51.11892 -0.39977 2716 ft 164 kts 72°
2026-05-05 16:36 51.12127 -0.38306 2508 ft 146 kts 72°
2026-05-05 16:37 51.12340 -0.36792 2316 ft 136 kts 72°
2026-05-05 16:37 51.12544 -0.35342 2129 ft 131 kts 71°
2026-05-05 16:37 51.12742 -0.33934 1950 ft 129 kts 71°
2026-05-05 16:37 51.12936 -0.32547 1783 ft 128 kts 72°
2026-05-05 16:38 51.13129 -0.31166 1596 ft 128 kts 73°
2026-05-05 16:38 51.13324 -0.29786 1378 ft 128 kts 73°
2026-05-05 16:38 51.13517 -0.28403 1186 ft 128 kts 72°
2026-05-05 16:38 51.13710 -0.27026 986 ft 127 kts 73°
2026-05-05 16:39 51.13903 -0.25648 845 ft 128 kts 72°
2026-05-05 16:39 51.14091 -0.24270 680 ft 128 kts 74°
2026-05-05 16:39 51.14282 -0.22879 506 ft 128 kts 74°
2026-05-05 16:39 51.14475 -0.21488 350 ft 129 kts 75°
2026-05-05 16:40 51.14655 -0.20167 223 ft 126 kts 74°
2026-05-05 16:40 51.14823 -0.18986 213 ft 81 kts 77°
2026-05-05 16:40 51.14908 -0.18376 209 ft 32 kts 77°
2026-05-05 16:40 51.14955 -0.18055 212 ft 28 kts 70°
2026-05-05 16:41 51.15055 -0.17804 215 ft 27 kts 50°
2026-05-05 16:41 51.15207 -0.17775 212 ft 23 kts 347°
2026-05-05 16:41 51.15281 -0.17685 205 ft 16 kts 83°
2026-05-05 16:41 51.15293 -0.17519 207 ft 0 kts 83°
2026-05-05 16:42 51.15295 -0.17503 205 ft 6 kts 83°
2026-05-05 16:43 51.15322 -0.17384 217 ft 14 kts 39°
2026-05-05 16:43 51.15421 -0.17399 208 ft 12 kts 349°
2026-05-05 16:43 51.15503 -0.17425 205 ft 12 kts 349°
2026-05-05 16:43 51.15594 -0.17453 205 ft 15 kts 349°
2026-05-05 16:44 51.15702 -0.17491 210 ft 17 kts 345°
2026-05-05 16:44 51.15775 -0.17446 208 ft 13 kts 85°
2026-05-05 16:44 51.15793 -0.17294 215 ft 15 kts 82°
2026-05-05 16:44 51.15818 -0.17133 206 ft 13 kts 69°
2026-05-05 16:45 51.15878 -0.17069 206 ft 7 kts 18°
2026-05-05 16:45 51.15927 -0.17066 209 ft 2 kts 335°
2026-05-05 16:45 51.15943 -0.17088 213 ft 8 kts 316°
2026-05-05 16:45 51.15979 -0.17145 211 ft 0 kts 314°
2026-05-05 16:46 51.15980 -0.17147 211 ft 1 kts 314°